GW7029 Weather Reports


Display with metric or nautical units.
time (UTC)temp
F
wind
direction
speed
MPH
gust
MPH
rain 1hr
in
rain 24hr
in
rain mn
in
humidity
%
barometer
mb
20260504140926 60 230 3.0 8.0 0.00 0.00 0.00 36 1012.6
20260504081825 42 241 0.0 2.0 0.00 0.00 0.00 59 1012.2
20260504080904 42 241 0.0 2.0 0.00 0.00 0.00 59 1012.2
20260504050004 41 304 0.0 1.0 0.00 0.00 0.00 60 1012.6
20260504045404 41 304 0.0 1.0 0.00 0.00 0.00 60 1012.6
20260504044525 41 304 0.0 1.0 0.00 0.00 0.00 59 1012.6
20260504043604 41 304 0.0 1.0 0.00 0.00 0.00 58 1012.6
20260504042704 41 305 0.0 1.0 0.00 0.00 0.00 58 1012.6
20260504041803 41 305 0.0 1.0 0.00 0.00 0.00 57 1012.6
20260504040904 41 305 0.0 1.0 0.00 0.00 0.00 56 1012.2
20260504040025 41 305 0.0 1.0 0.00 0.00 0.00 56 1012.6
20260504035404 41 306 0.0 1.0 0.00 0.00 0.00 56 1012.6
20260504034504 41 0 0.0 0.0 0.00 0.00 0.00 55 1012.2
20260504033625 42 306 0.0 1.0 0.00 0.00 0.00 55 1012.2
20260504032704 42 306 0.0 1.0 0.00 0.00 0.00 54 1012.2
20260504031804 42 306 0.0 1.0 0.00 0.00 0.00 53 1012.2
20260504030904 42 307 0.0 1.0 0.00 0.00 0.00 53 1012.2
20260504030004 42 307 0.0 1.0 0.00 0.00 0.00 53 1012.2
20260504025404 42 0 0.0 0.0 0.00 0.00 0.00 52 1012.2
20260504024504 42 0 0.0 0.0 0.00 0.00 0.00 51 1012.2
20260504023603 42 0 0.0 0.0 0.00 0.00 0.00 51 1012.2
20260504022704 42 0 0.0 0.0 0.00 0.00 0.00 51 1012.2
20260504021803 43 307 0.0 1.0 0.00 0.00 0.00 50 1012.2
20260504020924 43 307 0.0 1.0 0.00 0.00 0.00 49 1012.2
20260504020004 43 307 0.0 1.0 0.00 0.00 0.00 49 1012.2
20260504015403 44 307 0.0 1.0 0.00 0.00 0.00 47 1012.2
20260504014503 44 307 0.0 1.0 0.00 0.00 0.00 47 1012.2
20260504013604 45 307 0.0 1.0 0.00 0.00 0.00 46 1012.2
20260504012704 45 307 0.0 1.0 0.00 0.00 0.00 46 1011.9
20260504011803 46 307 0.0 1.0 0.00 0.00 0.00 45 1011.9
20260504010903 46 0 0.0 0.0 0.00 0.00 0.00 45 1011.5
20260504010024 47 0 0.0 0.0 0.00 0.00 0.00 45 1011.5
20260504005404 47 0 0.0 0.0 0.00 0.00 0.00 45 1011.5
20260504004503 47 307 0.0 1.0 0.00 0.00 0.00 45 1011.5
20260504003603 47 307 0.0 1.0 0.00 0.00 0.00 44 1011.2
20260504002703 47 307 0.0 1.0 0.00 0.00 0.00 44 1011.2
20260504001803 47 307 0.0 1.0 0.00 0.00 0.00 43 1010.8
20260504000903 47 0 0.0 0.0 0.00 0.00 0.00 42 1010.8
20260504000004 48 0 0.0 0.0 0.00 0.00 0.00 41 1010.5
20260503235403 48 0 0.0 0.0 0.00 0.00 0.00 41 1010.5
20260503234503 49 310 0.0 1.0 0.00 0.00 0.00 39 1010.5
20260503233603 50 316 0.0 4.0 0.00 0.00 0.00 37 1010.5
20260503232703 50 325 1.0 3.0 0.00 0.00 0.00 35 1010.5
20260503231803 51 327 1.0 3.0 0.00 0.00 0.00 33 1010.5
20260503230924 51 332 1.0 8.0 0.00 0.00 0.00 32 1010.1
20260503230004 51 323 3.0 13.0 0.00 0.00 0.00 30 1010.5
20260503225403 52 312 2.0 11.0 0.00 0.00 0.00 33 1010.1
20260503224503 52 314 3.0 19.0 0.00 0.00 0.00 32 1010.1
20260503223603 52 340 2.0 19.0 0.00 0.00 0.00 31 1010.1
20260503222703 52 295 2.0 7.0 0.00 0.00 0.00 31 1010.1
20260503221803 52 313 2.0 7.0 0.00 0.00 0.00 33 1010.1
20260503220924 52 311 3.0 14.0 0.00 0.00 0.00 32 1010.1
20260503220025 52 288 3.0 14.0 0.00 0.00 0.00 30 1010.1
20260503215403 52 307 3.0 14.0 0.00 0.00 0.00 32 1010.5
20260503214503 52 307 3.0 10.0 0.00 0.00 0.00 33 1010.1
20260503213603 52 310 3.0 15.0 0.00 0.00 0.00 32 1010.1
20260503212703 51 302 4.0 15.0 0.00 0.00 0.00 32 1010.1
20260503211803 51 318 4.0 14.0 0.00 0.00 0.00 33 1009.8
20260503210903 52 313 3.0 16.0 0.00 0.00 0.00 33 1010.1
20260503210003 51 317 4.0 11.0 0.00 0.00 0.00 34 1010.1
20260503205424 51 318 5.0 11.0 0.00 0.00 0.00 33 1009.8
20260503204503 52 278 3.0 14.0 0.00 0.00 0.00 33 1010.1
20260503203624 51 300 5.0 23.0 0.00 0.00 0.00 33 1009.8
20260503202724 52 312 6.0 21.0 0.00 0.00 0.00 33 1010.1
20260503201803 51 309 5.0 17.0 0.00 0.00 0.00 33 1010.1
20260503200903 51 307 4.0 15.0 0.00 0.00 0.00 36 1009.8
20260503200003 51 317 5.0 21.0 0.00 0.00 0.00 34 1010.1
20260503195403 52 303 2.0 14.0 0.00 0.00 0.00 35 1010.1
20260503194503 52 325 3.0 13.0 0.00 0.00 0.00 34 1010.1
20260503193603 52 321 4.0 14.0 0.00 0.00 0.00 37 1010.1
20260503192704 52 321 3.0 10.0 0.00 0.00 0.00 34 1010.1
20260503191803 51 331 5.0 16.0 0.00 0.00 0.00 33 1010.1
20260503190924 50 325 7.0 21.0 0.00 0.00 0.00 33 1010.1
20260503190003 51 307 6.0 16.0 0.00 0.00 0.00 34 1010.1
20260503185403 50 312 5.0 15.0 0.00 0.00 0.00 34 1010.1
20260503184503 50 315 3.0 17.0 0.00 0.00 0.00 36 1010.1
20260503183603 51 306 4.0 14.0 0.00 0.00 0.00 34 1010.1
20260503182724 51 291 3.0 14.0 0.00 0.00 0.00 34 1010.1
20260503181803 51 306 4.0 13.0 0.00 0.00 0.00 36 1010.5
20260503180903 50 318 5.0 14.0 0.00 0.00 0.00 34 1010.1
20260503180003 51 302 4.0 19.0 0.00 0.00 0.00 34 1009.8
20260503175403 51 309 5.0 11.0 0.00 0.00 0.00 34 1010.1
20260503174503 51 308 6.0 21.0 0.00 0.00 0.00 32 1009.8
20260503173603 51 306 5.0 16.0 0.00 0.00 0.00 33 1009.8
20260503172703 52 299 5.0 19.0 0.00 0.00 0.00 32 1009.8
20260503171824 51 305 5.0 18.0 0.00 0.00 0.00 35 1009.8
20260503170924 50 318 4.0 14.0 0.00 0.00 0.00 36 1010.1
20260503150904 44 313 3.0 16.0 0.00 0.00 0.00 58 1010.5